Location: Unspecified
(0.0000°N, 0.0000°E)
Time: 05:39:24

ATLAS 2AS CENTAUR R/B - Visible Passes

Search period start: 10 October 2015 00:00
Search period end: 20 October 2015 00:00
Orbit: 909 x 1304 km, 63.7° (Epoch: 08 October)

Date Brightness Start Highest point End Pass type
(mag) Time Alt. Az. Time Alt. Az. Time Alt. Az.
17 Oct 4.8 21:49:36 10° N 21:50:32 14° N 21:50:32 14° N visible
18 Oct 4.4 21:06:11 10° NNE 21:08:34 17° NNE 21:08:34 17° NNE visible
18 Oct 5.2 22:55:38 10° NW 22:56:07 12° NW 22:56:07 12° NW visible
19 Oct 4.4 20:25:01 10° NE 20:26:31 11° ENE 20:27:00 11° ENE visible
19 Oct 3.9 22:10:23 10° NNW 22:14:36 36° NNW 22:14:36 36° NNW visible
